Time,TemperatureF,DewpointF,PressureIn,WindDirection,WindDirectionDegrees,WindSpeedMPH,WindSpeedGustMPH,Humidity,HourlyPrecipIn,Conditions,Clouds,dailyrainin,SoftwareType,DateUTC
2013-03-11 00:02:00,40.3,37.9,30.43,North,-999,-999.0,4.0,91,0.00,,,0.01,meteohub,2013-03-11 07:02:00,
2013-03-11 00:07:00,40.3,37.9,30.43,NNW,327,0.0,4.0,91,0.00,,,0.00,meteohub,2013-03-11 07:07:00,
2013-03-11 00:12:00,40.3,37.9,30.43,NNW,327,0.0,1.0,91,0.00,,,0.00,meteohub,2013-03-11 07:12:00,
2013-03-11 00:18:00,40.1,37.8,30.43,NNW,327,0.0,1.0,91,0.00,,,0.00,meteohub,2013-03-11 07:18:00,
2013-03-11 00:23:00,40.1,37.9,30.43,NNW,327,0.0,2.0,92,0.00,,,0.00,meteohub,2013-03-11 07:23:00,
2013-03-11 00:28:00,40.1,37.9,30.43,NNW,327,0.0,2.0,92,0.00,,,0.00,meteohub,2013-03-11 07:28:00,
2013-03-11 00:33:00,39.9,37.8,30.43,NNW,327,0.0,2.0,92,0.00,,,0.00,meteohub,2013-03-11 07:33:00,
2013-03-11 00:39:00,39.9,37.8,30.42,NNW,327,0.0,0.0,92,0.00,,,0.00,meteohub,2013-03-11 07:39:00,
2013-03-11 00:44:00,39.9,37.8,30.43,NNW,327,0.0,2.0,92,0.00,,,0.00,meteohub,2013-03-11 07:44:00,
2013-03-11 00:49:00,39.7,37.6,30.43,NNW,327,0.0,2.0,92,0.00,,,0.00,meteohub,2013-03-11 07:49:00,
2013-03-11 00:54:00,39.7,37.6,30.42,NNW,327,0.0,2.0,92,0.00,,,0.00,meteohub,2013-03-11 07:54:00,
2013-03-11 00:59:00,39.7,37.6,30.43,NNW,327,1.0,0.0,92,0.00,,,0.00,meteohub,2013-03-11 07:59:00,
2013-03-11 01:04:00,39.6,37.4,30.43,NNW,327,0.0,0.0,92,0.00,,,0.00,meteohub,2013-03-11 08:04:00,
2013-03-11 01:10:00,39.6,37.4,30.43,NNW,327,0.0,1.0,92,0.00,,,0.00,meteohub,2013-03-11 08:10:00,
2013-03-11 01:15:00,39.6,37.4,30.43,NNW,327,0.0,1.0,92,0.00,,,0.00,meteohub,2013-03-11 08:15:00,
2013-03-11 01:20:00,39.4,37.2,30.43,NNW,327,0.0,2.0,92,0.00,,,0.00,meteohub,2013-03-11 08:20:00,
2013-03-11 01:26:00,39.4,37.2,30.43,NNW,327,0.0,2.0,92,0.00,,,0.00,meteohub,2013-03-11 08:26:00,
2013-03-11 01:32:00,39.4,37.2,30.43,NNW,327,0.0,2.0,92,0.00,,,0.00,meteohub,2013-03-11 08:32:00,
2013-03-11 01:37:00,39.2,37.0,30.43,NNW,327,0.0,1.0,92,0.00,,,0.00,meteohub,2013-03-11 08:37:00,
2013-03-11 01:42:00,39.2,37.0,30.43,NNW,327,0.0,2.0,92,0.00,,,0.00,meteohub,2013-03-11 08:42:00,
2013-03-11 01:47:00,39.0,36.9,30.43,NNW,327,0.0,2.0,92,0.00,,,0.00,meteohub,2013-03-11 08:47:00,
2013-03-11 01:52:00,39.0,36.9,30.43,NNW,327,0.0,2.0,92,0.00,,,0.00,meteohub,2013-03-11 08:52:00,
2013-03-11 01:57:00,39.0,36.9,30.43,NNW,327,0.0,0.0,92,0.00,,,0.00,meteohub,2013-03-11 08:57:00,
2013-03-11 02:02:00,39.0,36.9,30.43,NNW,327,0.0,0.0,92,0.00,,,0.00,meteohub,2013-03-11 09:02:00,
2013-03-11 02:07:00,39.0,36.9,30.43,NNW,327,0.0,0.0,92,0.00,,,0.00,meteohub,2013-03-11 09:07:00,
2013-03-11 02:12:00,39.0,36.9,30.43,NNW,327,0.0,1.0,92,0.00,,,0.00,meteohub,2013-03-11 09:12:00,
2013-03-11 02:17:00,39.2,37.4,30.43,NNW,327,0.0,1.0,93,0.00,,,0.00,meteohub,2013-03-11 09:17:00,
2013-03-11 02:22:00,39.2,37.4,30.43,NNW,327,0.0,1.0,93,0.00,,,0.00,meteohub,2013-03-11 09:22:00,
2013-03-11 02:27:00,39.2,37.4,30.43,NNW,327,0.0,1.0,93,0.00,,,0.00,meteohub,2013-03-11 09:27:00,
2013-03-11 02:32:00,39.2,37.4,30.43,NNW,327,0.0,2.0,93,0.00,,,0.00,meteohub,2013-03-11 09:32:00,
2013-03-11 02:37:00,39.4,37.6,30.43,NNW,327,0.0,2.0,93,0.00,,,0.00,meteohub,2013-03-11 09:37:00,
2013-03-11 02:42:00,39.4,37.6,30.43,NNW,327,0.0,1.0,93,0.00,,,0.00,meteohub,2013-03-11 09:42:00,
2013-03-11 02:47:00,39.4,37.6,30.43,NNW,327,1.0,1.0,93,0.00,,,0.00,meteohub,2013-03-11 09:47:00,
2013-03-11 02:52:00,39.4,37.6,30.43,NNW,327,0.0,1.0,93,0.00,,,0.00,meteohub,2013-03-11 09:52:00,
2013-03-11 02:58:00,39.4,37.6,30.43,NNW,327,0.0,1.0,93,0.00,,,0.00,meteohub,2013-03-11 09:58:00,
2013-03-11 03:03:00,39.4,37.6,30.43,NNW,327,0.0,2.0,93,0.00,,,0.00,meteohub,2013-03-11 10:03:00,
2013-03-11 03:09:00,39.4,37.6,30.43,NNW,327,0.0,2.0,93,0.00,,,0.00,meteohub,2013-03-11 10:09:00,
2013-03-11 03:15:00,39.6,37.4,30.42,NNW,327,0.0,1.0,92,0.00,,,0.00,meteohub,2013-03-11 10:15:00,
2013-03-11 03:20:00,39.6,37.4,30.43,NNW,327,0.0,1.0,92,0.00,,,0.00,meteohub,2013-03-11 10:20:00,
2013-03-11 03:25:00,39.6,37.4,30.42,NNW,327,0.0,1.0,92,0.00,,,0.00,meteohub,2013-03-11 10:25:00,
2013-03-11 03:31:00,39.6,37.8,30.43,NNW,327,0.0,2.0,93,0.00,,,0.00,meteohub,2013-03-11 10:31:00,
2013-03-11 03:36:00,39.6,37.8,30.43,NNW,327,0.0,2.0,93,0.00,,,0.00,meteohub,2013-03-11 10:36:00,
2013-03-11 03:42:00,39.7,37.9,30.42,NNW,327,0.0,2.0,93,0.00,,,0.00,meteohub,2013-03-11 10:42:00,
2013-03-11 03:47:00,39.7,37.9,30.43,NW,324,2.0,5.0,93,0.00,,,0.00,meteohub,2013-03-11 10:47:00,
2013-03-11 03:52:00,39.7,37.9,30.43,NW,324,1.0,5.0,93,0.00,,,0.00,meteohub,2013-03-11 10:52:00,
2013-03-11 03:57:00,39.7,37.9,30.43,NW,324,0.0,5.0,93,0.00,,,0.00,meteohub,2013-03-11 10:57:00,
2013-03-11 04:02:00,39.7,37.6,30.43,NW,324,0.0,5.0,92,0.00,,,0.00,meteohub,2013-03-11 11:02:00,
2013-03-11 04:07:00,39.7,37.9,30.42,NW,313,0.0,4.0,93,0.00,,,0.00,meteohub,2013-03-11 11:07:00,
2013-03-11 04:12:00,39.7,37.9,30.42,NW,313,0.0,4.0,93,0.00,,,0.00,meteohub,2013-03-11 11:12:00,
2013-03-11 04:17:00,39.9,38.1,30.42,NW,313,0.0,4.0,93,0.00,,,0.00,meteohub,2013-03-11 11:17:00,
2013-03-11 04:22:00,40.1,38.3,30.42,NW,313,0.0,2.0,93,0.00,,,0.00,meteohub,2013-03-11 11:22:00,
2013-03-11 04:28:00,40.1,37.9,30.42,NW,313,0.0,2.0,92,0.00,,,0.00,meteohub,2013-03-11 11:28:00,
2013-03-11 04:33:00,40.3,38.1,30.42,NW,313,0.0,4.0,92,0.00,,,0.00,meteohub,2013-03-11 11:33:00,
2013-03-11 04:39:00,40.3,38.5,30.43,NW,313,0.0,4.0,93,0.00,,,0.00,meteohub,2013-03-11 11:39:00,
2013-03-11 04:44:00,40.3,38.1,30.43,NW,313,0.0,4.0,92,0.00,,,0.00,meteohub,2013-03-11 11:44:00,
2013-03-11 04:49:00,40.3,38.1,30.43,NW,313,0.0,2.0,92,0.00,,,0.00,meteohub,2013-03-11 11:49:00,
2013-03-11 04:54:00,40.3,38.1,30.43,NW,313,0.0,2.0,92,0.00,,,0.00,meteohub,2013-03-11 11:54:00,
2013-03-11 04:59:00,40.3,38.1,30.43,NW,313,0.0,2.0,92,0.00,,,0.00,meteohub,2013-03-11 11:59:00,
2013-03-11 05:04:00,40.5,38.3,30.43,NW,313,0.0,2.0,92,0.00,,,0.00,meteohub,2013-03-11 12:04:00,
2013-03-11 05:09:00,40.5,38.3,30.43,NW,313,0.0,2.0,92,0.00,,,0.00,meteohub,2013-03-11 12:09:00,
2013-03-11 05:14:00,40.5,38.3,30.43,NW,313,0.0,1.0,92,0.00,,,0.00,meteohub,2013-03-11 12:14:00,
2013-03-11 05:20:00,40.5,38.3,30.43,NW,313,0.0,0.0,92,0.00,,,0.00,meteohub,2013-03-11 12:20:00,
2013-03-11 05:25:00,40.5,38.3,30.42,NW,313,0.0,0.0,92,0.00,,,0.00,meteohub,2013-03-11 12:25:00,
2013-03-11 05:32:00,40.5,38.3,30.43,NW,313,0.0,1.0,92,0.00,,,0.00,meteohub,2013-03-11 12:32:00,
2013-03-11 05:37:00,40.5,38.3,30.42,NW,313,0.0,2.0,92,0.00,,,0.00,meteohub,2013-03-11 12:37:00,
2013-03-11 05:42:00,40.3,38.1,30.42,NW,313,0.0,2.0,92,0.00,,,0.00,meteohub,2013-03-11 12:42:00,
2013-03-11 05:47:00,40.1,37.9,30.42,NW,313,0.0,2.0,92,0.00,,,0.00,meteohub,2013-03-11 12:47:00,
2013-03-11 05:52:00,39.9,37.8,30.42,NW,313,0.0,2.0,92,0.00,,,0.00,meteohub,2013-03-11 12:52:00,
2013-03-11 05:57:00,39.9,37.8,30.42,NW,313,0.0,2.0,92,0.00,,,0.00,meteohub,2013-03-11 12:57:00,
2013-03-11 06:02:00,39.7,37.6,30.42,NW,313,0.0,1.0,92,0.00,,,0.00,meteohub,2013-03-11 13:02:00,
2013-03-11 06:08:00,39.7,37.6,30.42,NW,313,0.0,2.0,92,0.00,,,0.00,meteohub,2013-03-11 13:08:00,
2013-03-11 06:13:00,39.7,37.6,30.42,NW,313,0.0,2.0,92,0.00,,,0.00,meteohub,2013-03-11 13:13:00,
2013-03-11 06:19:00,39.6,37.4,30.42,NW,313,0.0,2.0,92,0.00,,,0.00,meteohub,2013-03-11 13:19:00,
2013-03-11 06:24:00,39.6,37.4,30.42,NW,313,0.0,1.0,92,0.00,,,0.00,meteohub,2013-03-11 13:24:00,
2013-03-11 06:30:00,39.6,37.4,30.42,NW,313,0.0,1.0,92,0.00,,,0.00,meteohub,2013-03-11 13:30:00,
2013-03-11 06:35:00,39.6,37.4,30.42,NW,313,0.0,1.0,92,0.00,,,0.00,meteohub,2013-03-11 13:35:00,
2013-03-11 06:40:00,39.6,37.8,30.42,NW,313,0.0,1.0,93,0.00,,,0.00,meteohub,2013-03-11 13:40:00,
2013-03-11 06:45:00,39.7,37.9,30.42,NW,313,0.0,2.0,93,0.00,,,0.00,meteohub,2013-03-11 13:45:00,
2013-03-11 06:51:00,39.7,37.9,30.41,NW,313,2.0,2.0,93,0.00,,,0.00,meteohub,2013-03-11 13:51:00,
2013-03-11 06:57:00,39.7,37.9,30.41,NW,313,0.0,2.0,93,0.00,,,0.00,meteohub,2013-03-11 13:57:00,
2013-03-11 07:02:00,39.9,38.1,30.41,NW,313,0.0,2.0,93,0.00,,,0.00,meteohub,2013-03-11 14:02:00,
2013-03-11 07:08:00,39.7,37.6,30.41,NW,313,0.0,2.0,92,0.00,,,0.00,meteohub,2013-03-11 14:08:00,
2013-03-11 07:13:00,39.7,37.9,30.41,NW,313,0.0,2.0,93,0.00,,,0.00,meteohub,2013-03-11 14:13:00,
2013-03-11 07:18:00,39.9,38.1,30.41,NNW,342,2.0,2.0,93,0.00,,,0.00,meteohub,2013-03-11 14:18:00,
2013-03-11 07:23:00,39.9,38.1,30.41,NNW,339,1.0,5.0,93,0.00,,,0.00,meteohub,2013-03-11 14:23:00,
2013-03-11 07:28:00,39.9,38.1,30.41,NNW,339,0.0,5.0,93,0.00,,,0.00,meteohub,2013-03-11 14:28:00,
2013-03-11 07:35:00,39.9,38.1,30.41,NNW,339,0.0,5.0,93,0.00,,,0.00,meteohub,2013-03-11 14:35:00,
2013-03-11 07:41:00,39.9,38.1,30.41,NNW,339,0.0,2.0,93,0.00,,,0.00,meteohub,2013-03-11 14:41:00,
2013-03-11 07:46:00,39.9,37.8,30.41,NNW,339,0.0,1.0,92,0.00,,,0.00,meteohub,2013-03-11 14:46:00,
2013-03-11 07:51:00,39.9,37.8,30.41,NNW,339,0.0,2.0,92,0.00,,,0.00,meteohub,2013-03-11 14:51:00,
2013-03-11 07:57:00,39.9,38.1,30.41,NNW,339,0.0,2.0,93,0.00,,,0.00,meteohub,2013-03-11 14:57:00,
2013-03-11 08:02:00,39.9,38.1,30.41,NNW,339,0.0,2.0,93,0.00,,,0.00,meteohub,2013-03-11 15:02:00,
2013-03-11 08:07:00,39.9,37.8,30.41,NNW,339,0.0,2.0,92,0.00,,,0.00,meteohub,2013-03-11 15:07:00,
2013-03-11 08:12:00,39.9,37.8,30.40,NNW,339,0.0,2.0,92,0.00,,,0.00,meteohub,2013-03-11 15:12:00,
2013-03-11 08:17:00,40.1,38.3,30.40,NNW,339,0.0,1.0,93,0.00,,,0.00,meteohub,2013-03-11 15:17:00,
2013-03-11 08:22:00,40.1,38.3,30.40,NNW,339,0.0,1.0,93,0.00,,,0.00,meteohub,2013-03-11 15:22:00,
2013-03-11 08:27:00,40.3,38.1,30.40,NNW,339,0.0,0.0,92,0.00,,,0.00,meteohub,2013-03-11 15:27:00,
2013-03-11 08:33:00,40.3,38.5,30.40,NNW,339,0.0,4.0,93,0.00,,,0.00,meteohub,2013-03-11 15:33:00,
2013-03-11 08:38:00,40.3,38.5,30.40,NNW,339,0.0,4.0,93,0.00,,,0.00,meteohub,2013-03-11 15:38:00,
2013-03-11 08:41:00,40.3,38.1,30.40,NNW,339,0.0,4.0,92,0.00,,,0.00,meteohub,2013-03-11 15:41:00,
2013-03-11 08:47:00,40.5,38.3,30.40,NNW,339,2.0,2.0,92,0.00,,,0.00,meteohub,2013-03-11 15:47:00,
2013-03-11 08:55:00,40.5,38.3,30.40,NNW,339,0.0,4.0,92,0.00,,,0.00,meteohub,2013-03-11 15:55:00,
2013-03-11 09:00:00,40.5,38.3,30.40,NNW,339,0.0,4.0,92,0.00,,,0.00,meteohub,2013-03-11 16:00:00,
2013-03-11 09:05:00,40.6,38.5,30.40,NNW,339,0.0,2.0,92,0.00,,,0.00,meteohub,2013-03-11 16:05:00,
2013-03-11 09:10:00,40.6,38.5,30.41,NNW,339,0.0,2.0,92,0.00,,,0.00,meteohub,2013-03-11 16:10:00,
2013-03-11 09:16:00,40.8,38.7,30.40,NNW,339,1.0,2.0,92,0.00,,,0.00,meteohub,2013-03-11 16:16:00,
2013-03-11 09:22:00,41.0,38.8,30.40,NNW,339,0.0,2.0,92,0.00,,,0.00,meteohub,2013-03-11 16:22:00,
2013-03-11 09:27:00,41.2,39.0,30.40,NNW,339,1.0,2.0,92,0.00,,,0.00,meteohub,2013-03-11 16:27:00,
2013-03-11 09:32:00,41.2,39.0,30.40,NNW,339,1.0,4.0,92,0.00,,,0.00,meteohub,2013-03-11 16:32:00,
2013-03-11 09:37:00,41.4,39.2,30.41,NNW,339,0.0,5.0,92,0.00,,,0.00,meteohub,2013-03-11 16:37:00,
2013-03-11 09:42:00,41.5,39.4,30.41,NNW,339,0.0,5.0,92,0.00,,,0.00,meteohub,2013-03-11 16:42:00,
2013-03-11 09:47:00,41.5,39.4,30.41,North,349,2.0,2.0,92,0.00,,,0.00,meteohub,2013-03-11 16:47:00,
2013-03-11 09:53:00,41.7,39.2,30.41,North,349,0.0,4.0,91,0.00,,,0.00,meteohub,2013-03-11 16:53:00,
2013-03-11 09:58:00,42.1,39.6,30.41,North,349,0.0,4.0,91,0.00,,,0.00,meteohub,2013-03-11 16:58:00,
2013-03-11 10:03:00,42.3,39.7,30.40,North,349,0.0,2.0,91,0.00,,,0.00,meteohub,2013-03-11 17:03:00,
2013-03-11 10:11:00,42.4,39.9,30.40,North,349,0.0,2.0,91,0.00,,,0.00,meteohub,2013-03-11 17:11:00,
2013-03-11 10:17:00,43.0,40.3,30.40,North,349,0.0,1.0,90,0.00,,,0.00,meteohub,2013-03-11 17:17:00,
2013-03-11 10:22:00,43.2,40.5,30.40,North,349,0.0,1.0,90,0.00,,,0.00,meteohub,2013-03-11 17:22:00,
2013-03-11 10:28:00,43.2,40.1,30.40,North,349,0.0,1.0,89,0.00,,,0.00,meteohub,2013-03-11 17:28:00,
2013-03-11 10:33:00,43.5,40.5,30.40,North,349,0.0,1.0,89,0.00,,,0.00,meteohub,2013-03-11 17:33:00,
2013-03-11 10:38:00,43.7,40.5,30.40,North,349,0.0,1.0,88,0.00,,,0.00,meteohub,2013-03-11 17:38:00,
2013-03-11 10:43:00,44.1,40.8,30.40,North,349,0.0,1.0,88,0.00,,,0.00,meteohub,2013-03-11 17:43:00,
2013-03-11 10:48:00,44.2,40.6,30.40,North,349,1.0,1.0,87,0.00,,,0.00,meteohub,2013-03-11 17:48:00,
2013-03-11 10:53:00,44.4,40.5,30.40,ESE,109,4.0,4.0,86,0.00,,,0.00,meteohub,2013-03-11 17:53:00,
2013-03-11 10:58:00,44.8,40.5,30.40,ESE,109,0.0,2.0,85,0.00,,,0.00,meteohub,2013-03-11 17:58:00,
2013-03-11 11:04:00,45.0,40.6,30.40,SE,134,4.0,4.0,85,0.00,,,0.00,meteohub,2013-03-11 18:04:00,
2013-03-11 11:09:00,45.1,40.6,30.40,SSE,154,9.0,9.0,84,0.00,,,0.00,meteohub,2013-03-11 18:09:00,
2013-03-11 11:15:00,45.1,40.6,30.40,SE,140,6.0,8.0,84,0.00,,,0.00,meteohub,2013-03-11 18:15:00,
2013-03-11 11:20:00,45.1,40.6,30.40,SE,135,8.0,13.0,84,0.00,,,0.00,meteohub,2013-03-11 18:20:00,
2013-03-11 11:25:00,45.1,40.6,30.40,SSE,150,5.0,13.0,84,0.00,,,0.00,meteohub,2013-03-11 18:25:00,
2013-03-11 11:30:00,45.1,40.6,30.40,SE,137,10.0,11.0,84,0.00,,,0.00,meteohub,2013-03-11 18:30:00,
2013-03-11 11:36:00,45.1,40.6,30.40,SE,140,6.0,12.0,84,0.00,,,0.00,meteohub,2013-03-11 18:36:00,
2013-03-11 11:41:00,45.1,40.6,30.40,SSE,148,10.0,12.0,84,0.00,,,0.00,meteohub,2013-03-11 18:41:00,
2013-03-11 11:47:00,45.1,40.8,30.39,SE,131,8.0,14.0,85,0.00,,,0.00,meteohub,2013-03-11 18:47:00,
2013-03-11 11:52:00,45.1,40.8,30.39,SE,134,12.0,14.0,85,0.00,,,0.00,meteohub,2013-03-11 18:52:00,
2013-03-11 11:58:00,45.3,41.0,30.39,SE,139,10.0,14.0,85,0.00,,,0.00,meteohub,2013-03-11 18:58:00,
2013-03-11 12:03:00,45.3,41.0,30.39,SE,136,7.0,14.0,85,0.00,,,0.00,meteohub,2013-03-11 19:03:00,
2013-03-11 12:08:00,45.3,41.0,30.39,SSE,148,8.0,14.0,85,0.00,,,0.00,meteohub,2013-03-11 19:08:00,
2013-03-11 12:13:00,45.5,41.2,30.38,SSE,157,6.0,13.0,85,0.00,,,0.00,meteohub,2013-03-11 19:13:00,
2013-03-11 12:18:00,45.7,41.4,30.38,SSE,157,1.0,12.0,85,0.00,,,0.00,meteohub,2013-03-11 19:18:00,
2013-03-11 12:24:00,45.7,41.2,30.38,SSW,192,5.0,11.0,84,0.00,,,0.00,meteohub,2013-03-11 19:24:00,
2013-03-11 12:29:00,45.7,41.2,30.38,South,187,7.0,11.0,84,0.00,,,0.00,meteohub,2013-03-11 19:29:00,
2013-03-11 12:34:00,45.9,41.0,30.38,SSE,163,2.0,12.0,83,0.00,,,0.00,meteohub,2013-03-11 19:34:00,
2013-03-11 12:39:00,45.9,41.0,30.37,SE,146,5.0,12.0,83,0.00,,,0.00,meteohub,2013-03-11 19:39:00,
2013-03-11 12:44:00,45.9,40.6,30.37,South,173,4.0,12.0,82,0.00,,,0.00,meteohub,2013-03-11 19:44:00,
2013-03-11 12:49:00,46.0,40.8,30.37,SSE,158,5.0,7.0,82,0.00,,,0.00,meteohub,2013-03-11 19:49:00,
2013-03-11 12:55:00,46.0,40.8,30.37,SSE,159,7.0,8.0,82,0.00,,,0.00,meteohub,2013-03-11 19:55:00,
2013-03-11 13:00:00,46.0,40.8,30.37,SSE,153,4.0,11.0,82,0.00,,,0.00,meteohub,2013-03-11 20:00:00,
2013-03-11 13:05:00,46.0,41.2,30.36,SE,140,8.0,11.0,83,0.00,,,0.00,meteohub,2013-03-11 20:05:00,
2013-03-11 13:11:00,45.9,40.6,30.36,SE,141,7.0,14.0,82,0.00,,,0.00,meteohub,2013-03-11 20:11:00,
2013-03-11 13:16:00,45.9,40.6,30.36,SSW,210,5.0,14.0,82,0.00,,,0.00,meteohub,2013-03-11 20:16:00,
2013-03-11 13:21:00,46.0,40.8,30.36,SSW,194,5.0,14.0,82,0.00,,,0.00,meteohub,2013-03-11 20:21:00,
2013-03-11 13:27:00,46.0,41.2,30.36,SE,126,5.0,11.0,83,0.00,,,0.00,meteohub,2013-03-11 20:27:00,
2013-03-11 13:32:00,45.9,41.0,30.36,SE,140,4.0,11.0,83,0.00,,,0.00,meteohub,2013-03-11 20:32:00,
2013-03-11 13:37:00,46.0,40.8,30.36,SE,144,4.0,9.0,82,0.00,,,0.00,meteohub,2013-03-11 20:37:00,
2013-03-11 13:42:00,46.0,40.8,30.36,SE,132,4.0,9.0,82,0.00,,,0.00,meteohub,2013-03-11 20:42:00,
2013-03-11 13:47:00,46.0,40.8,30.36,South,170,7.0,9.0,82,0.00,,,0.00,meteohub,2013-03-11 20:47:00,
2013-03-11 13:52:00,45.9,40.6,30.35,SE,138,8.0,11.0,82,0.00,,,0.00,meteohub,2013-03-11 20:52:00,
2013-03-11 13:58:00,45.9,40.6,30.35,SSE,161,8.0,17.0,82,0.00,,,0.00,meteohub,2013-03-11 20:58:00,
2013-03-11 14:04:00,45.9,40.6,30.35,SE,146,13.0,17.0,82,0.00,,,0.00,meteohub,2013-03-11 21:04:00,
2013-03-11 14:09:00,45.7,40.8,30.35,SSE,162,6.0,17.0,83,0.00,,,0.00,meteohub,2013-03-11 21:09:00,
2013-03-11 14:15:00,45.7,40.8,30.34,South,181,8.0,15.0,83,0.00,,,0.00,meteohub,2013-03-11 21:15:00,
2013-03-11 14:20:00,45.7,41.2,30.34,SSE,167,6.0,11.0,84,0.00,,,0.00,meteohub,2013-03-11 21:20:00,
2013-03-11 14:25:00,45.7,41.2,30.34,SSE,161,4.0,11.0,84,0.00,,,0.00,meteohub,2013-03-11 21:25:00,
2013-03-11 14:31:00,45.7,41.2,30.34,SE,146,7.0,11.0,84,0.00,,,0.00,meteohub,2013-03-11 21:31:00,
2013-03-11 14:36:00,45.7,41.2,30.34,SE,140,11.0,11.0,84,0.00,,,0.00,meteohub,2013-03-11 21:36:00,
2013-03-11 14:42:00,45.7,41.2,30.34,SE,142,7.0,12.0,84,0.00,,,0.00,meteohub,2013-03-11 21:42:00,
2013-03-11 14:48:00,45.7,41.2,30.33,SSE,164,4.0,13.0,84,0.00,,,0.00,meteohub,2013-03-11 21:48:00,
2013-03-11 14:53:00,45.7,41.2,30.34,SSE,164,6.0,13.0,84,0.00,,,0.00,meteohub,2013-03-11 21:53:00,
2013-03-11 14:58:00,45.5,41.2,30.34,SE,138,9.0,13.0,85,0.00,,,0.00,meteohub,2013-03-11 21:58:00,
2013-03-11 15:03:00,45.5,42.4,30.33,SSE,153,4.0,11.0,89,0.00,,,0.00,meteohub,2013-03-11 22:03:00,
2013-03-11 15:09:00,45.3,41.0,30.33,SE,132,9.0,11.0,85,0.00,,,0.00,meteohub,2013-03-11 22:09:00,
2013-03-11 15:14:00,45.3,41.4,30.33,SE,134,6.0,11.0,86,0.00,,,0.00,meteohub,2013-03-11 22:14:00,
2013-03-11 15:19:00,45.3,41.4,30.33,SSE,148,9.0,14.0,86,0.00,,,0.00,meteohub,2013-03-11 22:19:00,
2013-03-11 15:25:00,45.3,41.4,30.33,SSE,155,7.0,14.0,86,0.00,,,0.00,meteohub,2013-03-11 22:25:00,
2013-03-11 15:30:00,45.1,41.2,30.33,SSE,158,5.0,14.0,86,0.00,,,0.00,meteohub,2013-03-11 22:30:00,
2013-03-11 15:35:00,45.1,41.2,30.32,SSE,147,4.0,14.0,86,0.00,,,0.00,meteohub,2013-03-11 22:35:00,
2013-03-11 15:40:00,45.1,41.2,30.32,SSE,165,11.0,14.0,86,0.00,,,0.00,meteohub,2013-03-11 22:40:00,
2013-03-11 15:46:00,45.1,41.2,30.32,South,172,4.0,16.0,86,0.00,,,0.00,meteohub,2013-03-11 22:46:00,
2013-03-11 15:52:00,45.3,41.4,30.32,SE,142,8.0,16.0,86,0.00,,,0.00,meteohub,2013-03-11 22:52:00,
2013-03-11 15:57:00,45.3,41.0,30.32,SSE,161,8.0,16.0,85,0.00,,,0.00,meteohub,2013-03-11 22:57:00,
2013-03-11 16:02:00,45.5,41.2,30.32,South,178,5.0,13.0,85,0.00,,,0.00,meteohub,2013-03-11 23:02:00,
2013-03-11 16:07:00,45.7,41.4,30.32,South,184,6.0,13.0,85,0.00,,,0.00,meteohub,2013-03-11 23:07:00,
2013-03-11 16:12:00,45.7,41.4,30.32,South,181,5.0,13.0,85,0.00,,,0.00,meteohub,2013-03-11 23:12:00,
2013-03-11 16:18:00,45.7,41.2,30.32,SSE,159,7.0,12.0,84,0.00,,,0.00,meteohub,2013-03-11 23:18:00,
2013-03-11 16:24:00,45.7,41.2,30.31,SSE,166,2.0,13.0,84,0.00,,,0.00,meteohub,2013-03-11 23:24:00,
2013-03-11 16:29:00,45.9,41.0,30.31,SSE,160,6.0,13.0,83,0.00,,,0.00,meteohub,2013-03-11 23:29:00,
2013-03-11 16:34:00,45.9,41.0,30.31,South,174,5.0,11.0,83,0.00,,,0.00,meteohub,2013-03-11 23:34:00,
2013-03-11 16:40:00,45.9,40.6,30.30,South,180,1.0,9.0,82,0.00,,,0.00,meteohub,2013-03-11 23:40:00,
2013-03-11 16:45:00,45.9,40.6,30.30,South,180,0.0,9.0,82,0.00,,,0.00,meteohub,2013-03-11 23:45:00,
2013-03-11 16:50:00,46.0,40.5,30.30,East,84,0.0,6.0,81,0.00,,,0.00,meteohub,2013-03-11 23:50:00,
2013-03-11 16:55:00,46.0,40.5,30.30,East,84,0.0,4.0,81,0.00,,,0.00,meteohub,2013-03-11 23:55:00,
2013-03-11 17:00:00,46.2,40.5,30.30,East,84,0.0,4.0,80,0.00,,,0.00,meteohub,2013-03-12 00:00:00,
2013-03-11 17:05:00,46.4,40.6,30.30,NNE,19,0.0,3.0,80,0.00,,,0.00,meteohub,2013-03-12 00:05:00,
2013-03-11 17:12:00,46.6,40.8,30.29,NNE,19,2.0,3.0,80,0.00,,,0.00,meteohub,2013-03-12 00:12:00,
2013-03-11 17:17:00,46.6,41.0,30.29,NNE,19,0.0,3.0,81,0.00,,,0.00,meteohub,2013-03-12 00:17:00,
2013-03-11 17:22:00,46.8,41.2,30.29,NNE,19,0.0,3.0,81,0.00,,,0.00,meteohub,2013-03-12 00:22:00,
2013-03-11 17:27:00,46.8,41.5,30.29,NNE,19,0.0,3.0,82,0.00,,,0.00,meteohub,2013-03-12 00:27:00,
2013-03-11 17:32:00,46.8,41.2,30.29,NNE,19,0.0,1.0,81,0.00,,,0.00,meteohub,2013-03-12 00:32:00,
2013-03-11 17:39:00,46.8,41.2,30.28,NNE,19,0.0,1.0,81,0.00,,,0.00,meteohub,2013-03-12 00:39:00,
2013-03-11 17:44:00,46.6,40.8,30.28,NNE,19,0.0,1.0,80,0.00,,,0.00,meteohub,2013-03-12 00:44:00,
2013-03-11 17:49:00,46.6,40.8,30.28,NNE,19,0.0,1.0,80,0.00,,,0.00,meteohub,2013-03-12 00:49:00,
2013-03-11 17:54:00,46.6,40.8,30.28,NNE,19,0.0,1.0,80,0.00,,,0.00,meteohub,2013-03-12 00:54:00,
2013-03-11 18:00:00,46.4,40.6,30.27,NNE,19,0.0,1.0,80,0.00,,,0.00,meteohub,2013-03-12 01:00:00,
2013-03-11 18:05:00,46.2,40.5,30.27,NNE,19,2.0,2.0,80,0.00,,,0.00,meteohub,2013-03-12 01:05:00,
2013-03-11 18:10:00,46.2,40.5,30.27,NNE,19,0.0,3.0,80,0.00,,,0.00,meteohub,2013-03-12 01:10:00,
2013-03-11 18:15:00,46.2,40.5,30.27,NNE,19,0.0,3.0,80,0.00,,,0.00,meteohub,2013-03-12 01:15:00,
2013-03-11 18:21:00,46.0,40.3,30.27,NNE,19,2.0,4.0,80,0.00,,,0.00,meteohub,2013-03-12 01:21:00,
2013-03-11 18:26:00,46.0,40.5,30.26,NNE,19,1.0,4.0,81,0.00,,,0.00,meteohub,2013-03-12 01:26:00,
2013-03-11 18:32:00,46.0,41.2,30.26,NNE,19,1.0,4.0,83,0.00,,,0.00,meteohub,2013-03-12 01:32:00,
2013-03-11 18:37:00,45.9,41.0,30.26,NNE,19,0.0,3.0,83,0.00,,,0.00,meteohub,2013-03-12 01:37:00,
2013-03-11 18:42:00,45.9,41.4,30.25,NNE,19,0.0,3.0,84,0.00,,,0.00,meteohub,2013-03-12 01:42:00,
2013-03-11 18:47:00,45.7,41.2,30.25,NNE,19,0.0,3.0,84,0.00,,,0.00,meteohub,2013-03-12 01:47:00,
2013-03-11 18:52:00,45.7,41.2,30.25,NNE,19,0.0,2.0,84,0.00,,,0.00,meteohub,2013-03-12 01:52:00,
2013-03-11 18:57:00,45.5,41.2,30.24,NNE,19,0.0,2.0,85,0.00,,,0.00,meteohub,2013-03-12 01:57:00,
2013-03-11 19:02:00,45.3,41.4,30.24,NNE,19,0.0,1.0,86,0.00,,,0.00,meteohub,2013-03-12 02:02:00,
2013-03-11 19:08:00,45.3,41.4,30.23,NNE,19,0.0,1.0,86,0.00,,,0.00,meteohub,2013-03-12 02:08:00,
2013-03-11 19:13:00,45.1,41.5,30.23,NNE,19,0.0,0.0,87,0.00,,,0.00,meteohub,2013-03-12 02:13:00,
2013-03-11 19:18:00,45.0,41.4,30.23,NNE,19,0.0,1.0,87,0.00,,,0.00,meteohub,2013-03-12 02:18:00,
2013-03-11 19:23:00,45.0,41.5,30.23,NNE,19,0.0,1.0,88,0.00,,,0.00,meteohub,2013-03-12 02:23:00,
2013-03-11 19:29:00,44.8,41.4,30.23,NNE,19,0.0,1.0,88,0.00,,,0.00,meteohub,2013-03-12 02:29:00,
2013-03-11 19:35:00,44.4,40.8,30.22,NNE,19,0.0,0.0,87,0.00,,,0.00,meteohub,2013-03-12 02:35:00,
2013-03-11 19:40:00,44.4,40.8,30.22,NNE,19,0.0,2.0,87,0.00,,,0.00,meteohub,2013-03-12 02:40:00,
2013-03-11 19:45:00,44.2,41.0,30.22,NNE,19,0.0,2.0,88,0.00,,,0.00,meteohub,2013-03-12 02:45:00,
2013-03-11 19:50:00,44.1,40.8,30.22,NNE,19,0.0,1.0,88,0.00,,,0.00,meteohub,2013-03-12 02:50:00,
2013-03-11 19:55:00,44.1,40.8,30.22,NNE,19,0.0,1.0,88,0.00,,,0.00,meteohub,2013-03-12 02:55:00,
2013-03-11 20:00:00,44.1,40.8,30.22,NNE,19,0.0,1.0,88,0.00,,,0.00,meteohub,2013-03-12 03:00:00,
2013-03-11 20:06:00,44.1,41.0,30.21,NNE,19,0.0,0.0,89,0.00,,,0.00,meteohub,2013-03-12 03:06:00,
2013-03-11 20:11:00,43.9,40.6,30.21,NNE,19,0.0,0.0,88,0.00,,,0.00,meteohub,2013-03-12 03:11:00,
2013-03-11 20:17:00,43.7,40.5,30.21,NNE,26,3.0,3.0,88,0.00,,,0.00,meteohub,2013-03-12 03:17:00,
2013-03-11 20:22:00,43.5,39.9,30.20,SSW,206,1.0,3.0,87,0.00,,,0.00,meteohub,2013-03-12 03:22:00,
2013-03-11 20:28:00,43.5,39.6,30.20,SSE,163,0.0,4.0,86,0.00,,,0.00,meteohub,2013-03-12 03:28:00,
2013-03-11 20:33:00,43.5,39.4,30.20,SSE,163,0.0,4.0,85,0.00,,,0.00,meteohub,2013-03-12 03:33:00,
2013-03-11 20:38:00,43.5,39.4,30.19,SSE,163,1.0,4.0,85,0.00,,,0.00,meteohub,2013-03-12 03:38:00,
2013-03-11 20:43:00,43.7,39.6,30.19,SSE,163,0.0,1.0,85,0.00,,,0.00,meteohub,2013-03-12 03:43:00,
2013-03-11 20:48:00,43.5,39.4,30.19,SSE,163,0.0,1.0,85,0.00,,,0.00,meteohub,2013-03-12 03:48:00,
2013-03-11 20:53:00,43.5,39.4,30.19,SSE,163,1.0,1.0,85,0.01,,,0.01,meteohub,2013-03-12 03:53:00,
2013-03-11 20:59:00,43.3,39.7,30.19,South,174,1.0,2.0,87,0.01,,,0.01,meteohub,2013-03-12 03:59:00,
2013-03-11 21:00:00,43.3,39.4,30.18,South,174,2.0,4.0,86,0.01,,,0.01,meteohub,2013-03-12 04:00:00,
2013-03-11 21:02:00,43.3,39.7,30.18,South,174,1.0,4.0,87,0.01,,,0.01,meteohub,2013-03-12 04:02:00,
2013-03-11 21:03:00,43.2,39.6,30.18,South,174,0.0,4.0,87,0.01,,,0.01,meteohub,2013-03-12 04:03:00,
2013-03-11 21:08:00,43.0,39.4,30.18,South,174,0.0,4.0,87,0.01,,,0.01,meteohub,2013-03-12 04:08:00,
2013-03-11 21:13:00,42.8,39.2,30.18,South,175,4.0,4.0,87,0.01,,,0.01,meteohub,2013-03-12 04:13:00,
2013-03-11 21:19:00,42.6,39.4,30.17,South,175,0.0,4.0,88,0.01,,,0.01,meteohub,2013-03-12 04:19:00,
2013-03-11 21:24:00,42.4,39.2,30.17,South,175,1.0,4.0,88,0.01,,,0.01,meteohub,2013-03-12 04:24:00,
2013-03-11 21:29:00,42.4,39.2,30.17,South,175,0.0,4.0,88,0.01,,,0.01,meteohub,2013-03-12 04:29:00,
2013-03-11 21:34:00,42.4,39.4,30.17,South,175,0.0,4.0,89,0.01,,,0.01,meteohub,2013-03-12 04:34:00,
2013-03-11 21:39:00,42.4,39.4,30.17,South,175,1.0,4.0,89,0.01,,,0.01,meteohub,2013-03-12 04:39:00,
2013-03-11 21:45:00,42.3,39.2,30.17,South,175,0.0,2.0,89,0.01,,,0.01,meteohub,2013-03-12 04:45:00,
2013-03-11 21:50:00,42.1,39.0,30.17,SSW,203,0.0,4.0,89,0.00,,,0.01,meteohub,2013-03-12 04:50:00,
2013-03-11 21:55:00,42.1,39.0,30.17,SSW,203,0.0,4.0,89,0.00,,,0.01,meteohub,2013-03-12 04:55:00,
2013-03-11 22:00:00,42.1,39.0,30.17,SSW,203,2.0,4.0,89,0.00,,,0.01,meteohub,2013-03-12 05:00:00,
2013-03-11 22:05:00,42.1,39.0,30.17,SSW,203,2.0,3.0,89,0.00,,,0.01,meteohub,2013-03-12 05:05:00,
2013-03-11 22:10:00,42.1,39.0,30.17,SSW,203,1.0,3.0,89,0.00,,,0.01,meteohub,2013-03-12 05:10:00,
2013-03-11 22:16:00,41.9,39.2,30.17,SSW,207,1.0,4.0,90,0.00,,,0.01,meteohub,2013-03-12 05:16:00,
2013-03-11 22:22:00,41.9,39.2,30.16,SSW,207,0.0,4.0,90,0.00,,,0.01,meteohub,2013-03-12 05:22:00,
2013-03-11 22:27:00,41.9,39.2,30.16,SSW,207,1.0,4.0,90,0.00,,,0.01,meteohub,2013-03-12 05:27:00,
2013-03-11 22:32:00,41.7,39.0,30.16,SSW,207,0.0,3.0,90,0.00,,,0.01,meteohub,2013-03-12 05:32:00,
2013-03-11 22:37:00,41.7,39.0,30.16,SSW,207,1.0,3.0,90,0.01,,,0.02,meteohub,2013-03-12 05:37:00,
2013-03-11 22:43:00,41.7,39.0,30.15,SSW,207,1.0,2.0,90,0.01,,,0.02,meteohub,2013-03-12 05:43:00,
2013-03-11 22:48:00,41.7,39.2,30.14,SSW,207,1.0,2.0,91,0.01,,,0.02,meteohub,2013-03-12 05:48:00,
2013-03-11 22:53:00,41.5,39.2,30.14,SSW,207,0.0,2.0,91,0.02,,,0.03,meteohub,2013-03-12 05:53:00,
2013-03-11 22:59:00,41.5,39.2,30.14,SSW,207,2.0,2.0,91,0.02,,,0.03,meteohub,2013-03-12 05:59:00,
2013-03-11 23:04:00,41.5,39.2,30.14,SSW,207,0.0,3.0,91,0.02,,,0.03,meteohub,2013-03-12 06:04:00,
2013-03-11 23:09:00,41.5,39.2,30.14,SSW,207,0.0,3.0,91,0.02,,,0.03,meteohub,2013-03-12 06:09:00,
2013-03-11 23:14:00,41.5,39.2,30.13,South,190,1.0,3.0,91,0.03,,,0.04,meteohub,2013-03-12 06:14:00,
2013-03-11 23:19:00,41.5,39.2,30.13,SE,146,0.0,4.0,91,0.03,,,0.04,meteohub,2013-03-12 06:19:00,
2013-03-11 23:25:00,41.5,39.2,30.13,South,188,0.0,4.0,91,0.04,,,0.05,meteohub,2013-03-12 06:25:00,
2013-03-11 23:30:00,41.5,39.2,30.13,South,188,1.0,4.0,91,0.04,,,0.05,meteohub,2013-03-12 06:30:00,
2013-03-11 23:35:00,41.5,39.2,30.12,South,174,0.0,4.0,91,0.03,,,0.05,meteohub,2013-03-12 06:35:00,
2013-03-11 23:40:00,41.5,39.2,30.12,South,174,0.0,4.0,91,0.04,,,0.06,meteohub,2013-03-12 06:40:00,
2013-03-11 23:45:00,41.7,39.2,30.12,NNE,22,0.0,4.0,91,0.04,,,0.07,meteohub,2013-03-12 06:45:00,
2013-03-11 23:51:00,41.7,39.2,30.12,NNE,22,0.0,4.0,91,0.04,,,0.07,meteohub,2013-03-12 06:51:00,
2013-03-11 23:56:00,41.5,39.2,30.11,NNE,22,0.0,4.0,91,0.04,,,0.07,meteohub,2013-03-12 06:56:00,